#timestamp,LO_Frequency,Hit,StdDev 
1632945615.4,286047001.0,N
1632945635.3,286047000.5,N
1632945655.1,286047000.0,N
1632945675.8,286047000.5,N
1632945695.7,286047000.5,N
1632945715.5,286047000.6,N
1632945735.4,286047001.0,N
1632945755.2,286046998.3,N
1632945775.0,286046999.3,N
1632945775.9,286046999.3,N
1632945795.8,286046996.5,N
1632945815.6,286046997.4,N
1632945835.4,286046997.6,N
1632945855.3,286046995.4,N
1632945875.1,286046994.9,N
1632945895.9,286046997.0,N
1632945915.7,286046996.5,N
1632945935.5,286046998.9,N
1632945955.4,286046999.4,N
1632945975.2,286046998.7,N
1632945995.1,286046998.3,N
1632945996.0,286046998.3,N
1632946015.8,286046998.4,N
1632946035.6,286046998.8,N
1632946055.5,286046998.6,N
1632946075.3,286046999.5,N
1632946095.2,286046998.3,N
1632946115.9,286046996.9,N
1632946135.7,286046999.1,N
1632946155.6,286046998.5,N
1632946175.4,286046998.9,N
1632946195.2,286046999.2,N
1632946215.1,286046997.6,N
1632946216.0,286046997.6,N
1632946235.8,286046998.0,N
1632946255.7,286046999.0,N
1632946275.5,286046999.1,N
1632946295.3,286046999.4,N
1632946315.2,286046997.8,N
1632946335.0,286046995.2,Y
1632946335.9,286046995.2,P
1632946355.8,286046996.6,N
1632946375.6,286046996.5,N
1632946395.4,286046999.5,N
1632946415.3,286046998.8,N
1632946435.1,286046998.8,N
1632946455.8,286046998.8,N
1632946475.7,286046998.4,N
1632946495.5,286046998.3,N
1632946515.4,286046996.5,N
1632946535.2,286046999.0,N
1632946555.0,286046999.4,N
1632946555.9,286046999.4,N
1632946575.8,286046998.6,N
1632946595.6,286046999.4,N
1632946615.4,286046998.9,N
1632946635.3,286046999.0,N
1632946655.1,286046998.7,N
1632946675.9,286046996.9,N
1632946695.7,286046996.6,N
1632946715.5,286046997.7,N
1632946735.4,286046996.9,N
1632946755.2,286046996.9,N
1632946775.1,286046997.3,N
1632946776.0,286046997.3,N
1632946795.8,286046997.6,N
1632946815.7,286046996.6,Y
1632946835.5,286047000.9,P
1632946855.3,286046998.5,N
1632946875.2,286046996.5,N
1632946895.0,286046997.9,N
1632946895.9,286046997.9,N
1632946915.8,286046997.7,N
1632946935.6,286046996.9,N
1632946955.4,286046996.5,N
1632946975.3,286046997.4,N
1632946995.1,286046995.3,Y
1632947015.9,286046998.7,P
1632947035.7,286047001.1,N
1632947055.5,286047000.5,N
1632947075.4,286046999.8,N
1632947095.2,286046999.8,N
1632947115.0,286047002.5,N
1632947116.0,286047002.5,N
1632947135.8,286047001.9,N
1632947155.6,286047000.2,N
1632947175.5,286047000.4,N
1632947195.3,286046999.9,N
1632947215.1,286047002.6,N
1632947235.9,286047002.8,N
1632947255.7,286046999.8,N
1632947275.6,286047000.0,N
1632947295.4,286047000.8,N
1632947315.2,286046999.7,N
1632947335.1,286047002.8,N
1632947336.0,286047002.8,N
1632947355.8,286047000.3,N
1632947375.6,286047000.3,N
1632947395.5,286047000.7,N
1632947415.3,286047000.8,N
1632947435.2,286047001.2,N
1632947455.9,286047000.7,N
1632947475.7,286047000.4,N
1632947495.6,286047002.8,N
1632947515.4,286046999.7,N
1632947535.3,286046998.8,N
1632947555.1,286046999.4,N
1632947556.0,286046999.4,N
1632947575.8,286047000.7,N
1632947595.7,286047000.8,N
1632947615.5,286047000.2,N
1632947635.4,286047001.5,N
1632947655.2,286047001.9,N
1632947675.0,286047001.6,N
1632947675.9,286047001.6,N
1632947695.8,286047001.5,N
1632947715.6,286047002.2,N
1632947735.5,286047002.4,N
1632947755.3,286047000.8,N
1632947775.1,286047000.7,N
1632947795.9,286047002.3,N
1632947815.7,286047002.5,N
1632947835.5,286047002.2,N
1632947855.4,286047003.4,Y
1632947875.2,286047002.6,P
1632947895.1,286046999.7,N
1632947896.0,286046999.7,N
1632947915.8,286047002.1,N
1632947935.7,286047001.6,N
1632947955.5,286047002.6,N
1632947975.3,286047001.6,N
1632947995.2,286047000.0,N
1632948015.0,286047000.1,N
1632948015.9,286047000.1,N
1632948035.7,286046999.7,N
1632948055.6,286047001.9,N
1632948075.4,286047004.3,Y
1632948095.3,286047002.2,P
1632948115.1,286047001.6,N
1632948135.8,286047000.7,N
1632948155.7,286046998.5,N
1632948175.5,286046998.7,N
1632948195.4,286046998.3,N
1632948215.2,286047000.9,N
1632948235.0,286047000.2,N
1632948235.9,286047000.2,N
1632948255.8,286047001.5,N
1632948275.6,286047003.9,Y
1632948295.4,286047004.4,P
1632948315.3,286046999.9,N
1632948335.1,286047002.4,N
1632948355.9,286047002.7,N
1632948375.7,286047001.6,N
1632948395.5,286047001.8,N
1632948415.4,286047002.1,N
1632948435.2,286047001.9,N
1632948455.0,286047001.9,N
1632948455.9,286047001.9,N
1632948475.8,286047003.9,Y
1632948495.6,286047002.7,P
1632948515.5,286047001.6,P
1632948535.3,286046999.7,N
1632948555.1,286047000.0,N
1632948575.9,286047001.1,N
1632948595.7,286046998.5,N
1632948615.6,286047000.5,N
1632948635.4,286047000.9,N
1632948655.2,286046998.5,N
1632948675.1,286046999.8,N
1632948676.0,286046999.8,N
1632948695.8,286047000.3,N
1632948715.6,286047000.4,N
1632948735.5,286047000.5,N
1632948755.3,286047001.1,N
1632948775.2,286047000.3,N
1632948795.9,286047000.5,N
1632948815.7,286047002.1,N
1632948835.6,286047002.4,N
1632948855.4,286047002.6,N
1632948875.2,286046998.1,N
1632948895.1,286047000.5,N
1632948896.0,286047000.5,N
1632948915.8,286047001.1,N
1632948935.7,286047001.2,N
1632948955.5,286047002.0,N
1632948975.3,286047000.2,N
1632948995.2,286046999.3,N
1632949015.0,286046996.5,Y
1632949015.9,286046996.5,P
1632949035.8,286046995.0,N
1632949055.6,286046995.2,N
1632949075.5,286046997.6,N
1632949095.3,286046995.2,N
1632949115.1,286046997.4,N
1632949135.9,286046996.5,N
1632949155.7,286046997.3,N
1632949175.5,286046998.0,N
1632949195.4,286046999.0,N
